Date String (YYYY-MM-DD hh:mm:ss) UTC,Instrument flags,Ambient pressure (hPa),Sample flow (lpm),Bypass flow (lpm),Sample temperature (°C),Ambient temperature (°C),ASC tube jacket temperature (°C),LED temperature (°C),Box temperature (°C),Sample RH (%),Span deviation,Mass concentration (μg/m³),Mass concentration (μg/m³),Mass concentration (μg/m³)
DateTimeUTC,F1_M11,P_M11,Q1_M11,Q2_M11,T1_M11,T2_M11,T3_M11,T4_M11,T5_M11,U1_M11,ZSPAN_M11,X0_M11,X2_M11,X1_M11
2022-05-10 07:00:00,,0822.8,4.99,0.00,28.3,27.2,00.0,37.5,30.0,13.1,0000.0,0014.29,0005.09,0002.07
2022-05-10 07:01:00,,0822.7,5.00,0.00,28.3,27.2,00.0,37.4,30.0,13.2,0000.0,0014.32,0005.10,0002.09
2022-05-10 07:02:00,,0822.7,5.00,0.00,28.3,27.2,00.0,37.4,30.0,13.3,0000.0,0014.88,0005.14,0002.08
2022-05-10 07:03:00,,0822.7,5.00,0.00,28.3,27.2,00.0,37.4,30.0,13.3,0000.0,0015.86,0005.12,0002.04
2022-05-10 07:04:00,,0822.7,5.00,0.00,28.3,27.2,00.0,37.4,30.0,13.4,0000.0,0016.24,0005.06,0002.03
2022-05-10 07:05:00,,0822.8,5.00,0.00,28.2,27.1,00.0,37.4,30.0,13.4,0000.0,0016.35,0005.01,0002.01
2022-05-10 07:06:00,,0822.8,5.01,0.00,28.2,27.1,00.0,37.4,29.9,13.4,0000.0,0016.32,0005.02,0002.00
2022-05-10 07:07:00,,0822.9,5.00,0.00,28.2,27.0,00.0,37.3,29.9,13.5,0000.0,0016.36,0005.06,0002.00
2022-05-10 07:08:00,,0823.0,5.00,0.00,28.2,27.0,00.0,37.3,29.9,13.5,0000.0,0017.31,0005.14,0002.00
2022-05-10 07:09:00,,0823.0,5.00,0.00,28.1,27.0,00.0,37.3,29.9,13.6,0000.0,0017.70,0005.15,0002.01
2022-05-10 07:10:00,,0822.9,4.99,0.00,28.1,26.9,00.0,37.3,29.8,13.7,0000.0,0017.64,0005.17,0002.01
2022-05-10 07:11:00,,0822.9,5.01,0.00,28.1,27.0,00.0,37.2,29.8,13.8,0000.0,0017.91,0005.22,0002.03
2022-05-10 07:12:00,,0822.9,5.00,0.00,28.1,27.0,00.0,37.2,29.8,13.8,0000.0,0018.40,0005.17,0002.03
2022-05-10 07:13:00,,0822.9,4.99,0.00,28.0,27.0,00.0,37.2,29.8,13.9,0000.0,0018.29,0005.18,0002.04
2022-05-10 07:14:00,,0823.0,5.00,0.00,28.0,27.0,00.0,37.2,29.8,13.9,0000.0,0018.30,0005.27,0002.06
2022-05-10 07:15:00,,0823.0,5.00,0.00,28.0,27.0,00.0,37.2,29.8,13.9,0000.0,0017.90,0005.33,0002.07
2022-05-10 07:16:00,,0823.0,5.00,0.00,28.0,27.0,00.0,37.1,29.8,13.8,0000.0,0018.19,0005.38,0002.08
2022-05-10 07:17:00,,0822.9,5.00,0.00,28.0,26.9,00.0,37.1,29.7,13.9,0000.0,0018.19,0005.38,0002.09
2022-05-10 07:18:00,,0823.0,4.99,0.00,28.0,26.9,00.0,37.1,29.7,13.8,0000.0,0018.25,0005.38,0002.08
2022-05-10 07:19:00,,0822.9,5.00,0.00,27.9,26.9,00.0,37.1,29.7,13.8,0000.0,0018.35,0005.36,0002.07
2022-05-10 07:20:00,,0822.9,5.00,0.00,27.9,26.8,00.0,37.1,29.6,13.8,0000.0,0018.70,0005.33,0002.07
2022-05-10 07:21:00,,0822.9,5.01,0.00,27.9,26.8,00.0,37.0,29.6,13.9,0000.0,0018.77,0005.41,0002.06
2022-05-10 07:22:00,,0822.9,5.00,0.00,27.9,26.8,00.0,37.0,29.6,13.9,0000.0,0018.50,0005.39,0002.03
2022-05-10 07:23:00,,0823.0,4.99,0.00,27.9,26.8,00.0,37.0,29.6,14.0,0000.0,0018.25,0005.40,0002.02
2022-05-10 07:24:00,,0822.9,5.00,0.00,27.8,26.7,00.0,37.0,29.6,14.0,0000.0,0018.71,0005.38,0002.02
2022-05-10 07:25:00,,0823.0,4.99,0.00,27.8,26.7,00.0,37.0,29.5,13.9,0000.0,0018.69,0005.33,0002.03
2022-05-10 07:26:00,,0822.9,5.01,0.00,27.8,26.7,00.0,36.9,29.5,14.1,0000.0,0018.32,0005.29,0002.04
2022-05-10 07:27:00,,0822.9,5.00,0.00,27.8,26.7,00.0,36.9,29.5,14.1,0000.0,0018.67,0005.33,0002.05
2022-05-10 07:28:00,,0823.0,5.00,0.00,27.8,26.6,00.0,36.9,29.5,14.2,0000.0,0019.56,0005.38,0002.03
2022-05-10 07:29:00,,0823.0,5.00,0.00,27.7,26.6,00.0,36.9,29.5,14.1,0000.0,0019.57,0005.38,0002.04
2022-05-10 07:30:00,,0823.0,5.00,0.00,27.7,26.6,00.0,36.9,29.5,14.0,0000.0,0018.90,0005.35,0002.03
2022-05-10 07:31:00,,0823.0,5.00,0.00,27.7,26.6,00.0,36.8,29.4,13.9,0000.0,0018.34,0005.42,0002.05
2022-05-10 07:32:00,,0823.0,4.99,0.00,27.7,26.5,00.0,36.8,29.4,13.9,0000.0,0018.74,0005.36,0002.05
2022-05-10 07:33:00,,0823.0,5.00,0.00,27.7,26.5,00.0,36.8,29.4,13.9,0000.0,0019.00,0005.34,0002.07
2022-05-10 07:34:00,,0823.0,5.00,0.00,27.7,26.6,00.0,36.8,29.4,13.9,0000.0,0019.48,0005.30,0002.06
2022-05-10 07:35:00,,0823.0,4.99,0.00,27.7,26.6,00.0,36.8,29.4,13.9,0000.0,0019.33,0005.40,0002.09
2022-05-10 07:36:00,,0823.0,5.01,0.00,27.6,26.6,00.0,36.8,29.4,13.9,0000.0,0018.35,0005.37,0002.07
2022-05-10 07:37:00,,0823.0,5.00,0.00,27.6,26.6,00.0,36.8,29.4,14.0,0000.0,0018.36,0005.38,0002.08
2022-05-10 07:38:00,,0823.1,5.00,0.00,27.6,26.6,00.0,36.7,29.4,14.2,0000.0,0018.03,0005.32,0002.07
2022-05-10 07:39:00,,0823.1,5.00,0.00,27.6,26.5,00.0,36.7,29.4,14.3,0000.0,0017.07,0005.21,0002.07
2022-05-10 07:40:00,,0823.1,4.99,0.00,27.6,26.6,00.0,36.7,29.3,14.3,0000.0,0017.57,0005.15,0002.06
2022-05-10 07:41:00,,0823.1,5.00,0.00,27.6,26.6,00.0,36.7,29.3,14.3,0000.0,0017.47,0005.11,0002.07
2022-05-10 07:42:00,,0823.0,5.01,0.00,27.5,26.6,00.0,36.7,29.3,14.3,0000.0,0017.58,0005.13,0002.08
2022-05-10 07:43:00,,0823.0,5.00,0.00,27.5,26.5,00.0,36.7,29.3,14.4,0000.0,0017.07,0005.06,0002.08
2022-05-10 07:44:00,,0823.0,5.01,0.00,27.5,26.5,00.0,36.7,29.3,14.3,0000.0,0017.47,0005.09,0002.08
2022-05-10 07:45:00,,0823.1,5.00,0.00,27.5,26.5,00.0,36.6,29.2,14.4,0000.0,0017.23,0005.12,0002.08
2022-05-10 07:46:00,,0823.1,4.99,0.00,27.5,26.5,00.0,36.6,29.2,14.5,0000.0,0017.29,0005.06,0002.07
2022-05-10 07:47:00,,0823.1,4.99,0.00,27.5,26.4,00.0,36.6,29.2,14.6,0000.0,0017.75,0005.06,0002.08
2022-05-10 07:48:00,,0823.1,5.00,0.00,27.4,26.4,00.0,36.6,29.2,14.5,0000.0,0017.62,0005.15,0002.09
2022-05-10 07:49:00,,0823.1,5.00,0.00,27.4,26.3,00.0,36.6,29.2,14.5,0000.0,0017.67,0005.18,0002.12
2022-05-10 07:50:00,,0823.1,5.00,0.00,27.4,26.2,00.0,36.5,29.1,14.5,0000.0,0018.41,0005.29,0002.16
2022-05-10 07:51:00,,0823.1,4.99,0.00,27.3,26.2,00.0,36.5,29.1,14.5,0000.0,0018.17,0005.35,0002.18
2022-05-10 07:52:00,,0823.1,5.00,0.00,27.3,26.2,00.0,36.5,29.0,14.6,0000.0,0018.47,0005.40,0002.18
2022-05-10 07:53:00,,0823.1,5.01,0.00,27.3,26.2,00.0,36.5,29.0,14.6,0000.0,0018.89,0005.37,0002.16
2022-05-10 07:54:00,,0823.1,4.99,0.00,27.3,26.2,00.0,36.5,29.0,14.7,0000.0,0019.95,0005.40,0002.16
2022-05-10 07:55:00,,0823.0,5.00,0.00,27.3,26.2,00.0,36.4,29.0,14.6,0000.0,0019.38,0005.45,0002.15
2022-05-10 07:56:00,,0823.1,5.00,0.00,27.2,26.2,00.0,36.4,29.0,14.6,0000.0,0019.61,0005.56,0002.16
2022-05-10 07:57:00,,0823.1,5.01,0.00,27.2,26.1,00.0,36.4,29.0,14.5,0000.0,0019.37,0005.62,0002.14
2022-05-10 07:58:00,,0823.1,5.00,0.00,27.2,26.1,00.0,36.4,28.9,14.5,0000.0,0019.33,0005.70,0002.14
2022-05-10 07:59:00,,0823.0,4.99,0.00,27.2,26.1,00.0,36.4,28.9,14.5,0000.0,0019.14,0005.75,0002.14
